Location: ??????
(33.3472°N, 35.4764°E)
Time: 19:34:51
(UTC+00:00)

IDEFIX/ARIANE 42P - Pass Details

Date: 21 August 2019
Orbit: 786 x 802 km, 98.3° (Epoch: 22 September)

Event Time Altitude Azimuth Distance (km) Brightness Sun altitude
Rises 02:31:13 0° 354° (N) 3,294 6.0 -7.4°
Reaches altitude 10° 02:34:04 10° 339° (NNW) 2,364 5.0 -6.9°
Maximum altitude 02:37:51 21° 292° (WNW) 1,739 3.9 -6.1°
Drops below altitude 10° 02:41:37 10° 246° (WSW) 2,362 4.4 -5.4°
Enters shadow 02:43:05 - 236° (WSW) 2,814 4.8 -5.1°
